EWS-G3 (GOES 14) 1 35491U 09033A 26263.07925274 -.00000088 00000+0 00000+0 0 9997 2 35491 1.9278 81.6949 0002192 91.9116 293.2596 1.00071065 7541 EWS-G2 (GOES 15) 1 36411U 10008A 26263.00480573 .00000018 00000+0 00000+0 0 9997 2 36411 1.5326 81.8089 0005158 81.8696 260.2672 1.00272447 60586 GOES 16 1 41866U 16071A 26263.16461485 -.00000095 00000+0 00000+0 0 9997 2 41866 0.5680 84.3084 0001683 128.1591 101.1856 1.00271879 36059 GOES 17 1 43226U 18022A 26263.16873501 -.00000187 00000+0 00000+0 0 9995 2 43226 1.1748 84.1017 0000778 122.2527 123.9798 1.00273171 31379 GOES 18 1 51850U 22021A 26263.22261741 .00000092 00000+0 00000+0 0 9999 2 51850 0.0407 341.6626 0000287 235.3986 85.2122 1.00272840 7543 GOES 19 1 60133U 24119A 26262.90609198 -.00000253 00000+0 00000+0 0 9999 2 60133 0.0405 2.7397 0000325 247.8067 359.2727 1.00271642 7911